Terminal Aerodrome Forecast
Issued by NWS

Home | Current Version | Previous Version | Text Only | Print | Product List | Glossary On
Versions: 1 2 3 4 5 6 7 8 9 10 11 12 13 14 15 16 17 18 19 20 21 22
000
FTUS43 KPAH 040520
TAFCGI
TAF
KCGI 040520Z 0406/0506 09005KT P6SM -RA SCT030 OVC070
     FM040800 07006KT 3SM BR SCT010 OVC030
      TEMPO 0410/0414 OVC010
     FM041400 VRB04KT 5SM BR BKN015
     FM041800 21005KT P6SM VCSH BKN020
     FM042200 30006KT P6SM BKN025
     FM050100 32004KT P6SM SCT025 BKN050=

USA.gov is the U.S. government's official web portal to all federal, state and local government web resources and services.